Regional Weather Roundup
Issued by NWS

Home | Current Version | Previous Version | Graphics & Text | Print | Product List | Glossary On
Versions: 1 2 3 4 5 6 7 8 9 10 11 12 13 14 15 16 17 18 19 20 21 22 23 24 25 26 27 28 29 30 31 32 33 34 35 36 37 38 39 40 41 42 43 44 45 46 47 48 49 50
000
ASUS43 KTOP 221559
RWRKS

WEATHER ROUNDUP FOR KANSAS
NATIONAL WEATHER SERVICE GOODLAND KS
1100 AM CDT TUE JUL 22 2014

NOTE:  "FAIR" INDICATES FEW OR NO CLOUDS BELOW 12,000 FEET WITH NO
SIGNIFICANT WEATHER AND/OR OBSTRUCTIONS TO VISIBILITY.

KSZ001>006-013>018-027>032-041>047-221700-
NORTHWEST KANSAS

CITY           SKY/WX    TMP DP  RH WIND       PRES   REMARKS
GOODLAND       SUNNY     85  60  42 NE14      30.17S
HAYS           MOSUNNY   84  63  48 CALM      30.11S
HILL CITY      MOSUNNY   86  64  47 SE9       30.09F
RUSSELL        SUNNY     87  66  49 SW3       30.08F
$$

KSZ061>065-074>080-084>089-221700-
SOUTHWEST KANSAS

CITY           SKY/WX    TMP DP  RH WIND       PRES   REMARKS
DODGE CITY     MOSUNNY   84  67  56 SW9       30.13S
ELKHART          N/A     84  67  56 S6          N/A
GARDEN CITY    SUNNY     83  68  60 VRB7      30.14R
GREAT BEND     SUNNY     88  70  55 SW6       30.08S
LIBERAL        MOSUNNY   82  66  57 SW3       30.16S
PRATT          SUNNY     88  68  51 SW10      30.11S
$$

KSZ066>073-081>083-090>101-221700-
SOUTHEAST KANSAS

CITY           SKY/WX    TMP DP  RH WIND       PRES   REMARKS
CHANUTE        SUNNY     87  74  64 SW12      30.08S HX  95
COFFEYVILLE    SUNNY     86  74  67 SW10      30.08S
HUTCHINSON     SUNNY     90  71  53 SW8       30.07S HX  96
MEDICINE LODGE   N/A     87  73  62 S8        30.08F
NEWTON         SUNNY     88  70  55 SW10      30.10S
PARSONS        SUNNY     87  73  62 SW12      30.09S
WICHITA INTL   MOSUNNY   88  74  63 SW13      30.07S HX  96
WICHITA JABRA  SUNNY     88  75  65 S9        30.07S HX  97
WINFIELD       SUNNY     86  76  71 S10       30.10S HX  96
$$

KSZ007>012-019>026-033>040-048>060-102>105-221700-
NORTHEAST KANSAS

CITY           SKY/WX    TMP DP  RH WIND       PRES   REMARKS
CONCORDIA      PTSUNNY   93  65  39 NW6       30.04F HX  95
EMPORIA        SUNNY     90  73  57 W12       30.06R HX  98
LAWRENCE       SUNNY     89  76  65 W6        30.05R HX 100
MANHATTAN      SUNNY     91  72  53 SW9       30.03F HX  98
OLATHE IND     SUNNY     85  75  72 SW9       30.06R
OLATHE EXE     SUNNY     85  75  72 SW8       30.05R
SALINA         SUNNY     93  67  42 W6        30.06F HX  96
TOPEKA BILLARD MOSUNNY   89  76  65 W6        30.04S HX 100
TOPEKA FORBES  MOSUNNY   89  75  63 SW8       30.05R HX  99
$$


USA.gov is the U.S. government's official web portal to all federal, state and local government web resources and services.